Weather History for Carmi, IL

Change the Weather History Date:

Sunday, December 9, 2012

  Actual Average (KEVV) Record (KEVV)
Temperature  
Mean Temperature 54 °F 37 °F  
Max Temperature 62 °F 46 °F 68 °F (1897)
Min Temperature 46 °F 28 °F -5 °F (1917)
Degree Days  
Heating Degree Days 10 28  
Month to date heating degree days 240  
Since 1 July heating degree days 1101  
Cooling Degree Days 0 0  
Month to date cooling degree days 0  
Year to date cooling degree days 1397  
Growing Degree Days 4 (Base 50)    
Moisture  
Dew Point 53 °F    
Average Humidity 93    
Maximum Humidity 97    
Minimum Humidity 89    
Precipitation  
Precipitation 2.73 in 0.13 in 1.66 in (1923)
Month to date precipitation 1.19  
Year to date precipitation 42.74  
Snow  
Snow 0.00 in 0.10 in 3.30 in (1961)
Month to date snowfall 0.5  
Since 1 July snowfall 0.8  
Snow Depth -    
Sea Level Pressure  
Sea Level Pressure 29.83 in    
Wind  
Wind Speed 8 mph (South)    
Max Wind Speed 17 mph    
Max Gust Speed 24 mph    
Visibility 5 miles    
Events Rain , Thunderstorm    
T = Trace of Precipitation, MM = Missing Value Source: NWS Daily Summary

Daily Weather History Graph

Daily Weather History Graph

Search for Another Location

Airport:

Trip Planner

Search our weather history database for the weather conditions in past years. The results will help you decide how hot, cold, wet, or windy it might be!

Date:

Astronomy

Dec. 09, 2012 Rise Set
Actual Time 6:57 AM CST 4:32 PM CST
Civil Twilight 6:28 AM CST 5:02 PM CST
Nautical Twilight 5:55 AM CST 5:35 PM CST
Astronomical Twilight 5:23 AM CST 6:07 PM CST
Moon 2:32 AM CST (12/9) 1:36 PM CST (12/9)
Length of Visible Light 10h 34m
Length of Day
9h 35m
Waning Crescent, 18% of the Moon is Illuminated
Dec 9
Waning Crescent
Dec 13
New
Dec 19
First Quarter
Dec 28
Full
Jan 4
Last Quarter

Hourly Weather History & Observations

Time (CST) Temp. Windchill Dew Point Humidity Pressure Visibility Wind Dir Wind Speed Gust Speed Precip Events Conditions
12:15 AM 47.7 °F - 45.7 °F 93% 29.96 in 5.0 mi NNE 5.8 mph - N/A   Overcast
12:35 AM 47.7 °F - 45.7 °F 93% 29.96 in 5.0 mi NE 5.8 mph - N/A   Overcast
12:55 AM 47.7 °F - 45.7 °F 93% 29.96 in 5.0 mi NE 4.6 mph - N/A   Overcast
1:15 AM 47.8 °F - 45.9 °F 93% 29.95 in 5.0 mi NE 5.8 mph - N/A   Overcast
1:35 AM 48.2 °F - 46.2 °F 93% 29.95 in 5.0 mi NE 6.9 mph - N/A   Overcast
1:55 AM 48.2 °F - 46.4 °F 93% 29.94 in 5.0 mi NE 5.8 mph - N/A   Overcast
2:15 AM 48.7 °F - 46.9 °F 93% 29.93 in 4.0 mi East 8.1 mph - N/A   Overcast
2:35 AM 49.1 °F - 47.3 °F 93% 29.93 in 4.0 mi ENE 3.5 mph - N/A   Overcast
2:55 AM 49.5 °F - 47.7 °F 94% 29.92 in 4.0 mi East 6.9 mph - N/A   Overcast
3:15 AM 50.0 °F - 48.2 °F 94% 29.90 in 4.0 mi East 9.2 mph - N/A   Overcast
3:35 AM 50.0 °F - 48.2 °F 94% 29.90 in 4.0 mi ENE 6.9 mph - N/A   Overcast
3:55 AM 50.4 °F - 48.2 °F 92% 29.90 in 4.0 mi East 8.1 mph - N/A   Overcast
4:15 AM 50.4 °F - 48.4 °F 93% 29.89 in 4.0 mi East 5.8 mph - N/A Thunderstorm Overcast
4:35 AM 50.5 °F - 48.7 °F 94% 29.89 in 4.0 mi East 4.6 mph - N/A   Overcast
4:55 AM 50.5 °F - 48.6 °F 93% 29.88 in 4.0 mi East 4.6 mph - N/A Thunderstorm Overcast
5:15 AM 50.9 °F - 48.9 °F 93% 29.87 in 4.0 mi East 4.6 mph - N/A   Overcast
5:35 AM 51.4 °F - 49.5 °F 93% 29.86 in 4.0 mi East 6.9 mph - N/A   Overcast
5:55 AM 51.8 °F - 50.0 °F 94% 29.85 in 5.0 mi ESE 8.1 mph - N/A   Overcast
6:15 AM 52.0 °F - 50.4 °F 94% 29.86 in 5.0 mi SE 11.5 mph - N/A Thunderstorm Overcast
6:35 AM 51.8 °F - 50.0 °F 94% 29.86 in 2.5 mi SE 10.4 mph - 0.04 in Rain Rain
6:55 AM 51.8 °F - 50.5 °F 95% 29.86 in 3.0 mi SE 8.1 mph - 0.05 in Rain Rain
7:15 AM 52.0 °F - 50.9 °F 96% 29.85 in 2.5 mi SE 5.8 mph - 0.01 in Rain Light Rain
7:35 AM 52.3 °F - 51.3 °F 96% 29.85 in 2.5 mi SSE 8.1 mph - 0.01 in Rain Light Rain
7:55 AM 52.7 °F - 51.8 °F 97% 29.85 in 1.8 mi SSE 9.2 mph - 0.01 in   Overcast
8:15 AM 53.2 °F - 52.2 °F 96% 29.84 in 1.5 mi SSE 9.2 mph - 0.01 in   Overcast
8:35 AM 54.0 °F - 52.9 °F 96% 29.85 in 1.2 mi SSE 9.2 mph - 0.01 in   Overcast
8:55 AM 54.5 °F - 53.6 °F 97% 29.86 in 2.0 mi South 8.1 mph - 0.01 in   Overcast
9:15 AM 55.4 °F - 54.1 °F 96% 29.86 in 3.0 mi South 9.2 mph - N/A   Overcast
9:35 AM 56.3 °F - 54.9 °F 95% 29.86 in 4.0 mi South 8.1 mph - N/A   Overcast
9:55 AM 56.5 °F - 54.9 °F 94% 29.85 in 4.0 mi SSE 5.8 mph - N/A   Overcast
10:15 AM 57.4 °F - 55.6 °F 94% 29.85 in 5.0 mi SSE 6.9 mph - N/A   Mostly Cloudy
10:35 AM 58.1 °F - 55.9 °F 93% 29.85 in 5.0 mi South 6.9 mph - N/A   Mostly Cloudy
10:55 AM 58.6 °F - 56.3 °F 92% 29.84 in 7.0 mi South 5.8 mph - N/A   Overcast
11:15 AM 59.0 °F - 56.5 °F 91% 29.84 in 10.0 mi South 5.8 mph - N/A   Overcast
11:35 AM 59.0 °F - 56.5 °F 91% 29.82 in 10.0 mi South 4.6 mph - N/A   Overcast
11:55 AM 59.7 °F - 57.2 °F 91% 29.82 in 10.0 mi South 4.6 mph - N/A   Overcast
12:15 PM 60.3 °F - 57.2 °F 90% 29.80 in 10.0 mi South 5.8 mph - N/A   Overcast
12:35 PM 60.3 °F - 57.6 °F 91% 29.79 in 10.0 mi South 4.6 mph - N/A   Overcast
12:55 PM 61.0 °F - 58.3 °F 91% 29.79 in 10.0 mi SSE 4.6 mph - N/A   Overcast
1:15 PM 61.2 °F - 58.6 °F 91% 29.78 in 10.0 mi South 5.8 mph - N/A Thunderstorm Thunderstorm
1:35 PM 62.1 °F - 59.0 °F 90% 29.79 in 7.0 mi SW 5.8 mph - 0.02 in Rain Heavy Rain
1:55 PM 61.7 °F - 59.4 °F 92% 29.75 in 7.0 mi South 9.2 mph - 0.04 in Rain , Thunderstorm Light Thunderstorms and Rain
2:15 PM 62.1 °F - 59.9 °F 93% 29.76 in 10.0 mi South 8.1 mph - N/A Thunderstorm Scattered Clouds
2:35 PM 61.7 °F - 59.5 °F 93% 29.76 in 10.0 mi South 4.6 mph - N/A Thunderstorm Overcast
2:55 PM 61.7 °F - 59.9 °F 94% 29.77 in 2.5 mi SSW 4.6 mph - 0.14 in Rain , Thunderstorm Heavy Thunderstorms and Rain
3:15 PM 61.3 °F - 59.9 °F 95% 29.76 in 5.0 mi South 8.1 mph - 0.04 in Rain , Thunderstorm Light Thunderstorms and Rain
3:35 PM 60.8 °F - 59.0 °F 94% 29.75 in 7.0 mi SSW 10.4 mph - 0.06 in Rain Rain
3:55 PM 61.0 °F - 59.0 °F 93% 29.74 in 1.8 mi SSW 11.5 mph 17.3 mph 0.35 in Rain , Thunderstorm Heavy Thunderstorms and Rain
4:15 PM 61.0 °F - 59.0 °F 93% 29.74 in 1.8 mi South 10.4 mph - 0.33 in Rain , Thunderstorm Heavy Thunderstorms and Rain
4:35 PM 60.8 °F - 59.0 °F 94% 29.74 in 1.0 mi SW 13.8 mph - 0.97 in Rain , Thunderstorm Heavy Thunderstorms and Rain
4:55 PM 60.1 °F - 58.6 °F 95% 29.72 in 2.0 mi SSW 8.1 mph - 1.29 in Rain , Thunderstorm Heavy Thunderstorms and Rain
5:15 PM 59.4 °F - 57.7 °F 94% 29.73 in 1.2 mi SSW 10.4 mph - 0.38 in Rain , Thunderstorm Heavy Thunderstorms and Rain
5:35 PM 59.9 °F - 58.3 °F 94% 29.74 in 2.5 mi SW 9.2 mph - 0.59 in Rain , Thunderstorm Heavy Thunderstorms and Rain
5:55 PM 59.9 °F - 58.6 °F 96% 29.72 in 3.0 mi West 5.8 mph 9.2 mph 0.73 in Rain , Thunderstorm Rain
6:35 PM 59.9 °F - 57.9 °F 93% 29.73 in 5.0 mi West 8.1 mph - 0.09 in Rain , Thunderstorm Heavy Thunderstorms and Rain
6:55 PM 57.4 °F - 55.6 °F 94% 29.75 in 7.0 mi WNW 16.1 mph - 0.10 in Rain , Thunderstorm Light Thunderstorms and Rain
7:15 PM 56.5 °F - 54.7 °F 94% 29.75 in 7.0 mi NW 16.1 mph 21.9 mph N/A Rain Rain
7:35 PM 54.3 °F - 52.7 °F 94% 29.75 in 4.0 mi NW 15.0 mph - N/A Thunderstorm Unknown
7:55 PM 53.8 °F - 51.8 °F 93% 29.76 in 10.0 mi NW 10.4 mph - N/A   Overcast
8:15 PM 53.8 °F - 51.8 °F 93% 29.78 in 10.0 mi WNW 8.1 mph - N/A   Overcast
8:35 PM 53.6 °F - 51.8 °F 94% 29.78 in 7.0 mi WNW 9.2 mph - N/A   Overcast
8:55 PM 53.4 °F - 51.3 °F 92% 29.78 in 7.0 mi WNW 8.1 mph - N/A   Overcast
9:15 PM 52.9 °F - 50.2 °F 91% 29.79 in 10.0 mi WNW 12.7 mph 19.6 mph N/A   Overcast
9:35 PM 52.0 °F - 49.1 °F 90% 29.79 in 7.0 mi NW 11.5 mph - N/A   Overcast
9:55 PM 51.1 °F - 48.0 °F 89% 29.79 in 7.0 mi NW 15.0 mph 19.6 mph N/A   Overcast
10:35 PM 49.5 °F - 46.8 °F 90% 29.82 in 7.0 mi NW 16.1 mph 24.2 mph 0.01 in   Overcast
10:55 PM 49.1 °F - 46.4 °F 90% 29.82 in 7.0 mi NW 15.0 mph 20.7 mph 0.01 in   Overcast
11:15 PM 48.2 °F - 45.7 °F 91% 29.83 in 5.0 mi NW 16.1 mph 21.9 mph N/A   Overcast
11:35 PM 47.5 °F - 45.1 °F 92% 29.83 in 4.0 mi NNW 17.3 mph - N/A   Overcast
11:55 PM 46.2 °F 39.8 °F 43.9 °F 92% 29.83 in 5.0 mi NW 15.0 mph 20.7 mph N/A   Overcast